TimeCDT,TemperatureF,Dew PointF,Humidity,Sea Level PressureIn,VisibilityMPH,Wind Direction,Wind SpeedMPH,Gust SpeedMPH,PrecipitationIn,Events,Conditions,WindDirDegrees,DateUTC
12:53 AM,42.1,37.0,82,30.25,10.0,Calm,Calm,-,N/A,,Clear,0,2012-10-11 05:53:00
1:53 AM,39.9,37.0,89,30.25,10.0,Calm,Calm,-,N/A,,Clear,0,2012-10-11 06:53:00
2:53 AM,39.0,36.0,89,30.24,10.0,Calm,Calm,-,N/A,,Clear,0,2012-10-11 07:53:00
3:53 AM,39.0,36.0,89,30.25,10.0,Calm,Calm,-,N/A,,Clear,0,2012-10-11 08:53:00
4:53 AM,39.9,36.0,86,30.25,10.0,Calm,Calm,-,N/A,,Clear,0,2012-10-11 09:53:00
5:53 AM,42.1,37.9,85,30.26,10.0,Calm,Calm,-,N/A,,Overcast,0,2012-10-11 10:53:00
6:53 AM,44.1,39.0,82,30.27,10.0,Calm,Calm,-,N/A,,Overcast,0,2012-10-11 11:53:00
7:53 AM,46.0,39.9,79,30.26,10.0,Calm,Calm,-,N/A,,Overcast,0,2012-10-11 12:53:00
8:53 AM,48.0,41.0,77,30.28,10.0,Calm,Calm,-,N/A,,Overcast,0,2012-10-11 13:53:00
9:53 AM,51.1,39.9,66,30.30,10.0,South,3.5,-,N/A,,Overcast,170,2012-10-11 14:53:00
10:53 AM,55.0,39.0,55,30.29,10.0,SSE,5.8,-,N/A,,Overcast,160,2012-10-11 15:53:00
11:53 AM,55.0,39.0,55,30.29,10.0,South,3.5,-,N/A,,Overcast,180,2012-10-11 16:53:00
12:53 PM,57.9,39.9,51,30.26,10.0,South,6.9,-,N/A,,Overcast,190,2012-10-11 17:53:00
1:53 PM,59.0,39.9,49,30.24,10.0,South,4.6,-,N/A,,Overcast,180,2012-10-11 18:53:00
3:01 PM,60.8,41.0,48,30.21,10.0,Variable,3.5,-,N/A,,Overcast,0,2012-10-11 20:01:00
3:53 PM,60.1,42.1,51,30.20,9.0,Variable,3.5,-,N/A,,Overcast,0,2012-10-11 20:53:00
5:53 PM,60.1,44.1,55,30.19,10.0,South,3.5,-,N/A,,Overcast,190,2012-10-11 22:53:00
6:53 PM,59.0,45.0,60,30.17,10.0,SSE,4.6,-,N/A,,Overcast,160,2012-10-11 23:53:00
8:53 PM,59.0,46.9,64,30.20,10.0,Calm,Calm,-,N/A,,Overcast,0,2012-10-12 01:53:00
9:53 PM,57.9,46.9,67,30.20,10.0,South,3.5,-,0.00,,Overcast,190,2012-10-12 02:53:00
10:38 PM,57.2,48.2,72,30.18,10.0,South,3.5,-,N/A,,Mostly Cloudy,170,2012-10-12 03:38:00
10:53 PM,57.0,48.0,72,30.17,10.0,South,4.6,-,N/A,,Mostly Cloudy,180,2012-10-12 03:53:00
11:53 PM,55.9,48.9,77,30.17,10.0,SSW,4.6,-,N/A,,Overcast,210,2012-10-12 04:53:00